Regional Weather Roundup
Issued by NWS

Home | Current Version | Previous Version | Graphics & Text | Print | Product List | Glossary On
Versions: 1 2 3 4 5 6 7 8 9 10 11 12 13 14 15 16 17 18 19 20 21 22 23 24 25 26 27 28 29 30 31 32 33 34 35 36 37 38 39 40 41 42 43 44 45 46 47 48 49 50
000
ASUS43 KTOP 191659
RWRKS

WEATHER ROUNDUP FOR KANSAS
NATIONAL WEATHER SERVICE GOODLAND KS
1200 PM CDT SAT AUG 19 2017

NOTE:  "FAIR" INDICATES FEW OR NO CLOUDS BELOW 12,000 FEET WITH NO
SIGNIFICANT WEATHER AND/OR OBSTRUCTIONS TO VISIBILITY.

KSZ001>006-013>018-027>032-041>047-191800-
NORTHWEST KANSAS

CITY           SKY/WX    TMP DP  RH WIND       PRES   REMARKS
GOODLAND       SUNNY     86  66  51 S20G25    30.01F
HAYS           SUNNY     90  69  50 SE10      29.97F
HILL CITY      SUNNY     91  67  44 S15       29.97F
RUSSELL        SUNNY     89  68  49 SE13      29.96F
$$

KSZ061>065-074>080-084>089-191800-
SOUTHWEST KANSAS

CITY           SKY/WX    TMP DP  RH WIND       PRES   REMARKS
DODGE CITY     SUNNY     92  64  39 S13G18    30.02F
ELKHART          N/A     85  69  58 S12         N/A
GARDEN CITY    SUNNY     90  67  46 S10       30.01F
GREAT BEND     SUNNY     88  72  58 S6        29.98F
LIBERAL        SUNNY     86  72  62 S10       30.05F
$$

KSZ066>073-081>083-090>101-191800-
SOUTHEAST KANSAS

CITY           SKY/WX    TMP DP  RH WIND       PRES   REMARKS
CHANUTE        SUNNY     88  76  67 CALM      29.98S HX  99
COFFEYVILLE    SUNNY     88  78  72 SE6       29.96F HX 101
HUTCHINSON     SUNNY     90  71  53 S5        29.96F HX  96
NEWTON         SUNNY     90  73  57 SW8       29.98F HX  98
PARSONS        SUNNY     89  77  67 S6        29.98F HX 101
WICHITA INTL   MOSUNNY   91  74  57 SE7       29.96F HX 100
WICHITA JABRA  SUNNY     89  75  63 S6        29.97S HX  99
WICHITA MCCONL SUNNY     89  73  59 SW6       29.97F HX  97
WINFIELD       SUNNY     88  77  69 S5        29.98F HX 100
$$

KSZ007>012-019>026-033>040-048>060-102>105-191800-
NORTHEAST KANSAS

CITY           SKY/WX    TMP DP  RH WIND       PRES   REMARKS
CONCORDIA      SUNNY     85  71  63 SE9       29.97F
EMPORIA        SUNNY     85  71  63 VRB7      29.98S
LAWRENCE       SUNNY     87  69  54 N3        29.98S
MANHATTAN      SUNNY     85  71  63 E7        29.97F
OLATHE IND     SUNNY     86  69  56 E5        30.00R
OLATHE EXE     SUNNY     85  69  58 CALM      29.99S
SALINA         SUNNY     89  68  49 VRB7      29.97F
TOPEKA BILLARD SUNNY     86  71  60 SE5       29.97F
TOPEKA FORBES  SUNNY     88  72  58 NE5       29.99S
$$




USA.gov is the U.S. government's official web portal to all federal, state and local government web resources and services.